STARLINK-34547

Last updated on Fri Aug 08 2025 00:02:05 GMT+0000 (Coordinated Universal Time)

1 64777U 25147Y 25218.91668981 -.01875009 00000+0 -48261-1 0 9999 2 64777 53.1593 163.1156 0000877 99.0793 133.1405 15.41989940 5889
UTC large
Height (km)
Speed (km/s)
/
Latitude / Longitude
Inclination (degrees)
Orbital Period (minutes)
Azimuth
Elevation
Range (km)
Doppler Factor

Next 0 passes for location: London (51.5072 / 0.1276)

Sorry there are no passes over London.